Location: Malvern Link
(52.1333°N, 2.3000°W)
Time: 11:22:43
(UTC+00:00)

USA 238 - Pass Details

Date: 18 September 2020
Orbit: 1006 x 1206 km, 63.4° (Epoch: 28 October)

Event Time Altitude Azimuth Distance (km) Brightness Sun altitude
Rises 19:29:56 0° 313° (NW) 3,914 8.0 -11.9°
Reaches altitude 10° 19:32:34 10° 314° (NW) 2,982 7.1 -12.3°
Maximum altitude 19:39:44 82° 43° (NE) 1,167 3.9 -13.4°
Enters shadow 19:45:45 17° 130° (SE) 2,600 5.1 -14.2°
